SAS2596 BIKF-EKCH

Flight info

Callsign SAS2596
Flight time 2h 40m
Altitude 35000
Route OSKUM3A OSKUM DCT 63N010W DCT GUNPA DCT RASVI DCT TESPI
Aircraft A320/M-SDE3FGHIRWY/LB1

Departure

Time 2026-05-04 17:24
Airport Keflavik International Airport (BIKF)

Arrival

Time 2026-05-04 20:05
Airport Copenhagen Kastrup Airport (EKCH)
Time Latitude Longitude Altitude Speed Heading
2026-05-04 16:55 63.99325 -22.61795 181 ft 0 kts 88°
2026-05-04 17:13 63.99324 -22.61827 180 ft 3 kts 88°
2026-05-04 17:14 63.99322 -22.61947 180 ft 3 kts 103°
2026-05-04 17:14 63.99329 -22.61984 180 ft 3 kts 139°
2026-05-04 17:14 63.99346 -22.62006 180 ft 1 kts 179°
2026-05-04 17:15 63.99345 -22.62005 180 ft 0 kts 179°
2026-05-04 17:16 63.99288 -22.62004 180 ft 10 kts 179°
2026-05-04 17:17 63.99210 -22.61999 180 ft 10 kts 178°
2026-05-04 17:17 63.99172 -22.61435 180 ft 17 kts 90°
2026-05-04 17:18 63.99171 -22.61184 180 ft 16 kts 90°
2026-05-04 17:18 63.99027 -22.60949 180 ft 18 kts 180°
2026-05-04 17:19 63.98747 -22.60950 180 ft 22 kts 180°
2026-05-04 17:19 63.98401 -22.60945 179 ft 28 kts 180°
2026-05-04 17:20 63.98038 -22.60950 180 ft 23 kts 180°
2026-05-04 17:20 63.97688 -22.60954 180 ft 27 kts 179°
2026-05-04 17:20 63.97491 -22.60952 180 ft 29 kts 180°
2026-05-04 17:21 63.97125 -22.60948 180 ft 20 kts 179°
2026-05-04 17:21 63.96815 -22.60948 180 ft 25 kts 180°
2026-05-04 17:22 63.96644 -22.60950 180 ft 23 kts 179°
2026-05-04 17:22 63.96516 -22.60950 180 ft 3 kts 184°
2026-05-04 17:23 63.96462 -22.60708 180 ft 11 kts 89°
2026-05-04 17:23 63.96476 -22.60572 179 ft 9 kts 36°
2026-05-04 17:23 63.96899 -22.60553 181 ft 81 kts 360°
2026-05-04 17:24 63.97639 -22.60548 182 ft 132 kts
2026-05-04 17:24 64.00607 -22.60609 2017 ft 136 kts 358°
2026-05-04 17:25 64.01548 -22.60605 2538 ft 136 kts 358°
2026-05-04 17:25 64.03722 -22.60585 3000 ft 179 kts
2026-05-04 17:26 64.05775 -22.56811 3612 ft 236 kts 77°
2026-05-04 17:26 64.04058 -22.45205 5738 ft 274 kts 117°
2026-05-04 17:27 64.02192 -22.37418 7309 ft 286 kts 117°
2026-05-04 17:27 64.00346 -22.29152 8794 ft 299 kts 115°
2026-05-04 17:28 63.99526 -22.25303 9461 ft 304 kts 114°
2026-05-04 17:29 63.96640 -22.11495 10781 ft 350 kts 114°
2026-05-04 17:29 63.93349 -21.95884 12426 ft 374 kts 115°
2026-05-04 17:30 63.89866 -21.79525 14166 ft 394 kts 116°
2026-05-04 17:31 63.87429 -21.68177 15216 ft 404 kts 116°
2026-05-04 17:31 63.83527 -21.50830 16830 ft 418 kts 120°
2026-05-04 17:32 63.80549 -21.39445 17887 ft 427 kts 122°
2026-05-04 17:33 63.76361 -21.21341 19383 ft 439 kts 104°
2026-05-04 17:33 63.75716 -21.14584 19879 ft 440 kts 94°
2026-05-04 17:34 63.74460 -20.93846 21378 ft 452 kts 94°
2026-05-04 17:34 63.74159 -20.89077 21706 ft 454 kts 94°
2026-05-04 17:35 63.72778 -20.67718 23129 ft 466 kts 95°
2026-05-04 17:35 63.71814 -20.53128 24010 ft 473 kts 95°
2026-05-04 17:35 63.71321 -20.45752 24393 ft 476 kts 94°
2026-05-04 17:36 63.70902 -20.38321 24767 ft 478 kts 91°
2026-05-04 17:36 63.70608 -20.30840 25143 ft 480 kts 89°
2026-05-04 17:36 63.70400 -20.23296 25509 ft 482 kts 88°
2026-05-04 17:36 63.70228 -20.15713 25878 ft 485 kts 88°
2026-05-04 17:37 63.70053 -20.08095 26237 ft 488 kts 88°
2026-05-04 17:37 63.69848 -20.00416 26582 ft 492 kts 89°
2026-05-04 17:37 63.69608 -19.92792 26930 ft 495 kts 89°
2026-05-04 17:37 63.69335 -19.85012 27278 ft 498 kts 90°
2026-05-04 17:38 63.69044 -19.77201 27622 ft 501 kts 90°
2026-05-04 17:38 63.68744 -19.69346 27952 ft 505 kts 90°
2026-05-04 17:38 63.68441 -19.61424 28288 ft 507 kts 90°
2026-05-04 17:38 63.68141 -19.53470 28628 ft 510 kts 90°
2026-05-04 17:39 63.67548 -19.37424 29260 ft 516 kts 90°
2026-05-04 17:39 63.67242 -19.29345 29610 ft 520 kts 90°
2026-05-04 17:39 63.66925 -19.21201 29927 ft 523 kts 90°
2026-05-04 17:40 63.66605 -19.13016 30237 ft 526 kts 90°
2026-05-04 17:40 63.66280 -19.04803 30578 ft 526 kts 90°
2026-05-04 17:40 63.65951 -18.96706 30982 ft 525 kts 90°
2026-05-04 17:40 63.65610 -18.88535 31397 ft 523 kts 90°
2026-05-04 17:41 63.65266 -18.80398 31833 ft 521 kts 90°
2026-05-04 17:41 63.64921 -18.72271 32281 ft 520 kts 90°
2026-05-04 17:41 63.64576 -18.64172 32727 ft 518 kts 91°
2026-05-04 17:41 63.64231 -18.56111 33174 ft 516 kts 91°
2026-05-04 17:42 63.63877 -18.48086 33621 ft 515 kts 91°
2026-05-04 17:42 63.63516 -18.40071 34072 ft 513 kts 91°
2026-05-04 17:42 63.63151 -18.32101 34450 ft 511 kts 91°
2026-05-04 17:42 63.62788 -18.24258 34793 ft 509 kts 92°
2026-05-04 17:43 63.62417 -18.16339 35097 ft 509 kts 92°
2026-05-04 17:43 63.62044 -18.08427 35184 ft 509 kts 92°
2026-05-04 17:43 63.61286 -17.92561 35198 ft 510 kts 92°
2026-05-04 17:44 63.60511 -17.76693 35199 ft 510 kts 92°
2026-05-04 17:44 63.59721 -17.60850 35187 ft 510 kts 92°
2026-05-04 17:45 63.58920 -17.45104 35187 ft 510 kts 93°
2026-05-04 17:45 63.58090 -17.29260 35190 ft 510 kts 93°
2026-05-04 17:46 63.57240 -17.13391 35208 ft 511 kts 93°
2026-05-04 17:46 63.56378 -16.97655 35199 ft 511 kts 93°
2026-05-04 17:47 63.55497 -16.81811 35206 ft 511 kts 94°
2026-05-04 17:47 63.54598 -16.65968 35208 ft 511 kts 94°
2026-05-04 17:48 63.53687 -16.50249 35208 ft 511 kts 94°
2026-05-04 17:48 63.52750 -16.34416 35207 ft 512 kts 94°
2026-05-04 17:49 63.51793 -16.18570 35207 ft 512 kts 94°
2026-05-04 17:49 63.50828 -16.02854 35204 ft 512 kts 95°
2026-05-04 17:50 63.49839 -15.87051 35205 ft 512 kts 95°
2026-05-04 17:50 63.48838 -15.71266 35200 ft 511 kts 95°
2026-05-04 17:51 63.47820 -15.55593 35199 ft 511 kts 95°
2026-05-04 17:51 63.46777 -15.39851 35193 ft 511 kts 95°
2026-05-04 17:52 63.45727 -15.24122 35189 ft 511 kts 96°
2026-05-04 17:52 63.44657 -15.08384 35187 ft 511 kts 96°
2026-05-04 17:53 63.43570 -14.92772 35185 ft 512 kts 96°
2026-05-04 17:53 63.42459 -14.77037 35184 ft 512 kts 96°
2026-05-04 17:54 63.41331 -14.61320 35182 ft 512 kts 96°
2026-05-04 17:54 63.40188 -14.45606 35179 ft 513 kts 96°
2026-05-04 17:55 63.39040 -14.30009 35179 ft 513 kts 97°
2026-05-04 17:55 63.37857 -14.14289 35177 ft 513 kts 97°
2026-05-04 17:56 63.36656 -13.98583 35175 ft 514 kts 97°
2026-05-04 17:56 63.35438 -13.82971 35175 ft 514 kts 97°
2026-05-04 17:57 63.34203 -13.67277 35172 ft 514 kts 97°
2026-05-04 17:57 63.32959 -13.51609 35170 ft 514 kts 97°
2026-05-04 17:58 63.31693 -13.35923 35168 ft 514 kts 98°
2026-05-04 17:58 63.30412 -13.20366 35163 ft 514 kts 98°
2026-05-04 17:59 63.29109 -13.04730 35160 ft 514 kts 98°
2026-05-04 18:00 63.27113 -12.81258 35159 ft 515 kts 98°
2026-05-04 18:00 63.25779 -12.65719 35150 ft 515 kts 98°
2026-05-04 18:01 63.24414 -12.50104 35151 ft 515 kts 99°
2026-05-04 18:01 63.23027 -12.34497 35144 ft 515 kts 99°
2026-05-04 18:02 63.20920 -12.11115 35139 ft 515 kts 99°
2026-05-04 18:02 63.19486 -11.95548 35137 ft 515 kts 99°
2026-05-04 18:03 63.18053 -11.80094 35134 ft 515 kts 99°
2026-05-04 18:03 63.16602 -11.64530 35130 ft 515 kts 99°
2026-05-04 18:04 63.15120 -11.49015 35124 ft 515 kts 100°
2026-05-04 18:05 63.12876 -11.25765 35118 ft 515 kts 100°
2026-05-04 18:05 63.11372 -11.10377 35119 ft 515 kts 100°
2026-05-04 18:06 63.09062 -10.87203 35112 ft 515 kts 100°
2026-05-04 18:06 63.07497 -10.71761 35106 ft 514 kts 101°
2026-05-04 18:07 63.05940 -10.56468 35103 ft 514 kts 101°
2026-05-04 18:07 63.04354 -10.41091 35102 ft 514 kts 101°
2026-05-04 18:08 63.02737 -10.25751 35099 ft 513 kts 101°
2026-05-04 18:08 63.01112 -10.10418 35099 ft 513 kts 101°
2026-05-04 18:09 62.96994 -9.80406 35094 ft 514 kts 108°
2026-05-04 18:10 62.94683 -9.65517 35093 ft 514 kts 108°
2026-05-04 18:10 62.92357 -9.50635 35094 ft 514 kts 108°
2026-05-04 18:11 62.90031 -9.35895 35090 ft 514 kts 108°
2026-05-04 18:11 62.87668 -9.21067 35089 ft 514 kts 108°
2026-05-04 18:12 62.85304 -9.06366 35084 ft 514 kts 108°
2026-05-04 18:12 62.82922 -8.91618 35079 ft 514 kts 109°
2026-05-04 18:13 62.80521 -8.76885 35078 ft 513 kts 109°
2026-05-04 18:14 62.76888 -8.54859 35075 ft 513 kts 109°
2026-05-04 18:14 62.74470 -8.40288 35072 ft 513 kts 109°
2026-05-04 18:15 62.69550 -8.11047 35072 ft 513 kts 109°
2026-05-04 18:16 62.67085 -7.96545 35068 ft 513 kts 109°
2026-05-04 18:16 62.64605 -7.82037 35069 ft 513 kts 110°
2026-05-04 18:17 62.60822 -7.60272 35064 ft 513 kts 110°
2026-05-04 18:18 62.57025 -7.38555 35065 ft 512 kts 110°
2026-05-04 18:18 62.54493 -7.24203 35064 ft 512 kts 110°
2026-05-04 18:19 62.50638 -7.02618 35062 ft 512 kts 111°
2026-05-04 18:19 62.48044 -6.88248 35063 ft 512 kts 111°
2026-05-04 18:20 62.45456 -6.73996 35065 ft 512 kts 111°
2026-05-04 18:20 62.42837 -6.59648 35059 ft 512 kts 111°
2026-05-04 18:21 62.40207 -6.45361 35061 ft 512 kts 111°
2026-05-04 18:21 62.37587 -6.31194 35054 ft 512 kts 111°
2026-05-04 18:22 62.35362 -6.19253 35052 ft 511 kts 112°
2026-05-04 18:22 62.32696 -6.05159 35047 ft 511 kts 112°
2026-05-04 18:23 62.30015 -5.90988 35047 ft 511 kts 112°
2026-05-04 18:23 62.27311 -5.76839 35050 ft 511 kts 112°
2026-05-04 18:24 62.24594 -5.62716 35046 ft 511 kts 112°
2026-05-04 18:24 62.21870 -5.48610 35049 ft 511 kts 112°
2026-05-04 18:25 62.19155 -5.34617 35050 ft 511 kts 113°
2026-05-04 18:25 62.16392 -5.20546 35050 ft 511 kts 113°
2026-05-04 18:26 62.13633 -5.06606 35052 ft 511 kts 113°
2026-05-04 18:26 62.10847 -4.92613 35047 ft 511 kts 114°
2026-05-04 18:27 62.08051 -4.78662 35047 ft 511 kts 114°
2026-05-04 18:27 62.05243 -4.64729 35045 ft 510 kts 114°
2026-05-04 18:28 62.02441 -4.50903 35042 ft 510 kts 114°
2026-05-04 18:28 61.99603 -4.37034 35041 ft 510 kts 114°
2026-05-04 18:29 61.96750 -4.23188 35037 ft 510 kts 114°
2026-05-04 18:29 61.93904 -4.09458 35037 ft 511 kts 115°
2026-05-04 18:30 61.89574 -3.88769 35036 ft 511 kts 115°
2026-05-04 18:31 61.86668 -3.74978 35034 ft 511 kts 115°
2026-05-04 18:31 61.83778 -3.61309 35033 ft 511 kts 115°
2026-05-04 18:32 61.80850 -3.47576 35029 ft 511 kts 115°
2026-05-04 18:32 61.77906 -3.33888 35024 ft 511 kts 116°
2026-05-04 18:33 61.74945 -3.20195 35025 ft 512 kts 116°
2026-05-04 18:33 61.71992 -3.06620 35028 ft 512 kts 116°
2026-05-04 18:34 61.69006 -2.92956 35027 ft 512 kts 116°
2026-05-04 18:34 61.66020 -2.79404 35027 ft 512 kts 116°
2026-05-04 18:35 61.62995 -2.65796 35028 ft 512 kts 117°
2026-05-04 18:35 61.59959 -2.52234 35023 ft 512 kts 117°
2026-05-04 18:36 61.56931 -2.38788 35023 ft 513 kts 117°
2026-05-04 18:36 61.53873 -2.25229 35023 ft 513 kts 117°
2026-05-04 18:37 61.50794 -2.11727 35024 ft 513 kts 117°
2026-05-04 18:37 61.47726 -1.98344 35025 ft 513 kts 117°
2026-05-04 18:38 61.44627 -1.84874 35024 ft 513 kts 117°
2026-05-04 18:38 61.41508 -1.71452 35024 ft 513 kts 118°
2026-05-04 18:39 61.38395 -1.58141 35030 ft 513 kts 118°
2026-05-04 18:39 61.35254 -1.44764 35025 ft 513 kts 118°
2026-05-04 18:40 61.32105 -1.31418 35031 ft 513 kts 118°
2026-05-04 18:40 61.28942 -1.18115 35028 ft 512 kts 118°
2026-05-04 18:41 61.25773 -1.04835 35020 ft 512 kts 118°
2026-05-04 18:41 61.22606 -0.91662 35023 ft 512 kts 118°
2026-05-04 18:42 61.19398 -0.78454 35021 ft 511 kts 119°
2026-05-04 18:42 61.16192 -0.65302 35023 ft 511 kts 119°
2026-05-04 18:43 61.12996 -0.52258 35017 ft 511 kts 119°
2026-05-04 18:43 61.09764 -0.39154 35019 ft 510 kts 119°
2026-05-04 18:44 61.06522 -0.26090 35017 ft 510 kts 119°
2026-05-04 18:44 61.03269 -0.13036 35013 ft 510 kts 120°
2026-05-04 18:45 60.99935 -0.00251 35012 ft 507 kts 126°
2026-05-04 18:45 60.95664 0.11218 35010 ft 503 kts 133°
2026-05-04 18:46 60.91293 0.22488 35008 ft 503 kts 133°
2026-05-04 18:46 60.86918 0.33739 35014 ft 503 kts 133°
2026-05-04 18:47 60.82569 0.44866 35015 ft 502 kts 133°
2026-05-04 18:47 60.78180 0.56015 35014 ft 502 kts 133°
2026-05-04 18:48 60.73787 0.67120 35012 ft 501 kts 133°
2026-05-04 18:48 60.69419 0.78127 35015 ft 501 kts 133°
2026-05-04 18:49 60.65024 0.89158 35015 ft 500 kts 134°
2026-05-04 18:49 60.60616 1.00146 35010 ft 500 kts 134°
2026-05-04 18:50 60.56201 1.11073 35009 ft 499 kts 134°
2026-05-04 18:50 60.51811 1.21900 35013 ft 499 kts 134°
2026-05-04 18:51 60.47397 1.32778 35017 ft 498 kts 134°
2026-05-04 18:51 60.42968 1.43627 35003 ft 498 kts 135°
2026-05-04 18:52 60.38541 1.54410 35002 ft 497 kts 135°
2026-05-04 18:52 60.34145 1.65086 35004 ft 497 kts 135°
2026-05-04 18:53 60.29705 1.75795 35006 ft 496 kts 135°
2026-05-04 18:53 60.25256 1.86446 35005 ft 496 kts 135°
2026-05-04 18:54 60.20814 1.97065 35003 ft 495 kts 135°
2026-05-04 18:54 60.16365 2.07654 35004 ft 495 kts 135°
2026-05-04 18:55 60.11941 2.18157 35000 ft 494 kts 135°
2026-05-04 18:55 60.05251 2.33919 35003 ft 494 kts 136°
2026-05-04 18:56 60.00800 2.44341 35001 ft 493 kts 136°
2026-05-04 18:56 59.96321 2.54761 35001 ft 493 kts 136°
2026-05-04 18:57 59.91884 2.65075 35000 ft 492 kts 136°
2026-05-04 18:57 59.87418 2.75424 35000 ft 492 kts 136°
2026-05-04 18:58 59.82946 2.85727 34995 ft 491 kts 136°
2026-05-04 18:58 59.78470 2.95987 34995 ft 491 kts 136°
2026-05-04 18:59 59.74015 3.06133 34996 ft 490 kts 136°
2026-05-04 18:59 59.69526 3.16299 34994 ft 490 kts 137°
2026-05-04 19:00 59.65036 3.26446 34996 ft 489 kts 137°
2026-05-04 19:00 59.60549 3.36559 34992 ft 489 kts 137°
2026-05-04 19:01 59.56053 3.46632 34998 ft 488 kts 137°
2026-05-04 19:01 59.51578 3.56607 34989 ft 488 kts 137°
2026-05-04 19:02 59.47076 3.66600 34991 ft 487 kts 137°
2026-05-04 19:02 59.42572 3.76560 34986 ft 486 kts 137°
2026-05-04 19:03 59.38097 3.86416 34991 ft 486 kts 137°
2026-05-04 19:03 59.33590 3.96275 34985 ft 485 kts 137°
2026-05-04 19:04 59.29075 4.06116 34990 ft 484 kts 137°
2026-05-04 19:04 59.24591 4.15859 34985 ft 484 kts 137°
2026-05-04 19:05 59.20085 4.25635 34987 ft 484 kts 138°
2026-05-04 19:05 59.15564 4.35383 34989 ft 483 kts 138°
2026-05-04 19:06 59.11076 4.45011 34986 ft 483 kts 138°
2026-05-04 19:06 59.06541 4.54680 34989 ft 482 kts 138°
2026-05-04 19:07 59.02042 4.64262 34978 ft 482 kts 138°
2026-05-04 19:07 58.97521 4.73849 34982 ft 481 kts 138°
2026-05-04 19:08 58.92996 4.83396 34983 ft 480 kts 138°
2026-05-04 19:08 58.88490 4.92854 34977 ft 480 kts 139°
2026-05-04 19:09 58.83960 5.02334 34971 ft 479 kts 139°
2026-05-04 19:09 58.79428 5.11797 34970 ft 479 kts 139°
2026-05-04 19:10 58.74897 5.21198 34967 ft 478 kts 139°
2026-05-04 19:10 58.70383 5.30498 34966 ft 477 kts 139°
2026-05-04 19:11 58.65834 5.39850 34966 ft 477 kts 139°
2026-05-04 19:11 58.61299 5.49144 34968 ft 476 kts 139°
2026-05-04 19:12 58.54533 5.62979 34965 ft 475 kts 139°
2026-05-04 19:13 58.49992 5.72191 34960 ft 475 kts 139°
2026-05-04 19:13 58.46217 5.79813 34957 ft 474 kts 139°
2026-05-04 19:14 58.41671 5.88976 34955 ft 473 kts 139°
2026-05-04 19:14 58.37133 5.98086 34947 ft 473 kts 139°
2026-05-04 19:15 58.32619 6.07106 34945 ft 472 kts 139°
2026-05-04 19:15 58.27342 6.17601 34942 ft 471 kts 140°
2026-05-04 19:16 58.23543 6.25135 34942 ft 471 kts 139°
2026-05-04 19:16 58.19034 6.34040 34940 ft 470 kts 140°
2026-05-04 19:17 58.14485 6.42971 34938 ft 470 kts 140°
2026-05-04 19:17 58.09931 6.51879 34938 ft 470 kts 140°
2026-05-04 19:18 58.05383 6.60749 34942 ft 469 kts 140°
2026-05-04 19:18 58.00869 6.69536 34935 ft 469 kts 140°
2026-05-04 19:19 57.96317 6.78374 34938 ft 469 kts 140°
2026-05-04 19:19 57.91758 6.87164 34938 ft 468 kts 140°
2026-05-04 19:20 57.87193 6.95920 34939 ft 468 kts 140°
2026-05-04 19:20 57.82651 7.04610 34938 ft 468 kts 140°
2026-05-04 19:21 57.78082 7.13322 34939 ft 468 kts 140°
2026-05-04 19:21 57.73518 7.22004 34946 ft 468 kts 140°
2026-05-04 19:22 57.68940 7.30668 34946 ft 468 kts 140°
2026-05-04 19:22 57.64388 7.39248 34952 ft 467 kts 140°
2026-05-04 19:23 57.59805 7.47862 34955 ft 467 kts 140°
2026-05-04 19:23 57.55217 7.56442 34956 ft 467 kts 140°
2026-05-04 19:24 57.50619 7.65004 34957 ft 467 kts 140°
2026-05-04 19:24 57.46055 7.73482 34959 ft 466 kts 140°
2026-05-04 19:25 57.41460 7.82002 34954 ft 466 kts 140°
2026-05-04 19:25 57.36863 7.90481 34962 ft 466 kts 140°
2026-05-04 19:26 57.32249 7.98914 34969 ft 465 kts 140°
2026-05-04 19:26 57.27665 8.07281 34962 ft 465 kts 139°
2026-05-04 19:27 57.23110 8.15800 34973 ft 465 kts 139°
2026-05-04 19:27 57.18591 8.24347 34974 ft 465 kts 139°
2026-05-04 19:28 57.14088 8.32802 34976 ft 465 kts 139°
2026-05-04 19:28 57.09534 8.41272 34977 ft 464 kts 139°
2026-05-04 19:29 57.04976 8.49709 34977 ft 464 kts 139°
2026-05-04 19:29 57.00421 8.58116 34980 ft 464 kts 137°
2026-05-04 19:30 56.96431 8.67458 34983 ft 468 kts 130°
2026-05-04 19:30 56.92541 8.77029 34982 ft 468 kts 130°
2026-05-04 19:31 56.88634 8.86596 34985 ft 468 kts 130°
2026-05-04 19:31 56.84748 8.96064 34989 ft 468 kts 130°
2026-05-04 19:32 56.80831 9.05551 34991 ft 467 kts 130°
2026-05-04 19:32 56.76914 9.15026 34993 ft 467 kts 130°
2026-05-04 19:33 56.72999 9.24470 34995 ft 466 kts 130°
2026-05-04 19:33 56.69076 9.33884 34993 ft 466 kts 130°
2026-05-04 19:34 56.65174 9.43207 34994 ft 465 kts 130°
2026-05-04 19:34 56.61239 9.52563 34996 ft 465 kts 130°
2026-05-04 19:35 56.57297 9.61890 34997 ft 465 kts 130°
2026-05-04 19:35 56.55330 9.66536 34849 ft 462 kts 130°
2026-05-04 19:35 56.53378 9.71144 34600 ft 458 kts 130°
2026-05-04 19:35 56.51442 9.75707 34362 ft 455 kts 130°
2026-05-04 19:36 56.49513 9.80244 34119 ft 453 kts 130°
2026-05-04 19:36 56.47613 9.84703 33869 ft 451 kts 130°
2026-05-04 19:36 56.45703 9.89181 33583 ft 449 kts 130°
2026-05-04 19:36 56.43798 9.93638 33310 ft 446 kts 131°
2026-05-04 19:37 56.41899 9.98069 33045 ft 444 kts 131°
2026-05-04 19:37 56.40009 10.02465 32767 ft 442 kts 131°
2026-05-04 19:37 56.38125 10.06833 32498 ft 439 kts 131°
2026-05-04 19:37 56.36252 10.11174 32220 ft 435 kts 131°
2026-05-04 19:38 56.34396 10.15482 31741 ft 433 kts 131°
2026-05-04 19:38 56.32572 10.19705 31276 ft 431 kts 131°
2026-05-04 19:38 56.30731 10.23959 30795 ft 429 kts 131°
2026-05-04 19:38 56.28897 10.28191 30333 ft 427 kts 131°
2026-05-04 19:39 56.27069 10.32402 29844 ft 426 kts 131°
2026-05-04 19:39 56.25242 10.36593 29384 ft 422 kts 131°
2026-05-04 19:39 56.23431 10.40732 28946 ft 419 kts 131°
2026-05-04 19:39 56.21659 10.44783 28530 ft 416 kts 131°
2026-05-04 19:40 56.19874 10.48864 28105 ft 413 kts 131°
2026-05-04 19:40 56.18099 10.52916 27683 ft 411 kts 131°
2026-05-04 19:40 56.16329 10.56946 27258 ft 410 kts 131°
2026-05-04 19:40 56.14560 10.60963 26836 ft 408 kts 131°
2026-05-04 19:41 56.12798 10.64959 26406 ft 407 kts 131°
2026-05-04 19:41 56.11066 10.68883 25989 ft 406 kts 131°
2026-05-04 19:41 56.09309 10.72863 25545 ft 406 kts 131°
2026-05-04 19:41 56.07559 10.76823 25093 ft 405 kts 131°
2026-05-04 19:42 56.05801 10.80789 24644 ft 405 kts 131°
2026-05-04 19:42 56.04068 10.84686 24179 ft 405 kts 131°
2026-05-04 19:42 56.02308 10.88636 23713 ft 405 kts 131°
2026-05-04 19:42 56.00549 10.92582 23198 ft 405 kts 131°
2026-05-04 19:43 55.98799 10.96508 22725 ft 403 kts 131°
2026-05-04 19:43 55.97061 11.00400 22306 ft 399 kts 131°
2026-05-04 19:43 55.95326 11.04268 21863 ft 396 kts 132°
2026-05-04 19:43 55.93629 11.08050 21371 ft 394 kts 131°
2026-05-04 19:44 55.91919 11.11858 20851 ft 393 kts 132°
2026-05-04 19:44 55.90221 11.15633 20407 ft 389 kts 132°
2026-05-04 19:44 55.88530 11.19386 19996 ft 385 kts 132°
2026-05-04 19:44 55.86845 11.23126 19527 ft 384 kts 132°
2026-05-04 19:45 55.85175 11.26825 19030 ft 383 kts 132°
2026-05-04 19:45 55.83548 11.30421 18880 ft 360 kts 132°
2026-05-04 19:45 55.82044 11.33747 18756 ft 339 kts 132°
2026-05-04 19:45 55.80593 11.36949 18488 ft 329 kts 133°
2026-05-04 19:46 55.79172 11.40109 18272 ft 325 kts 129°
2026-05-04 19:46 55.78027 11.43570 17924 ft 326 kts 116°
2026-05-04 19:46 55.77337 11.47410 17563 ft 326 kts 99°
2026-05-04 19:46 55.77193 11.51430 17140 ft 326 kts 92°
2026-05-04 19:47 55.77113 11.55433 16697 ft 325 kts 92°
2026-05-04 19:47 55.77040 11.59439 16383 ft 323 kts 92°
2026-05-04 19:47 55.76974 11.63420 16082 ft 321 kts 92°
2026-05-04 19:47 55.76909 11.67327 15774 ft 320 kts 92°
2026-05-04 19:48 55.76840 11.71269 15469 ft 318 kts 92°
2026-05-04 19:48 55.76769 11.75190 15156 ft 316 kts 92°
2026-05-04 19:48 55.76696 11.79088 14781 ft 315 kts 92°
2026-05-04 19:48 55.76623 11.82968 14437 ft 313 kts 92°
2026-05-04 19:49 55.76550 11.86821 14085 ft 312 kts 92°
2026-05-04 19:49 55.76477 11.90658 13679 ft 310 kts 93°
2026-05-04 19:49 55.76404 11.94471 13201 ft 308 kts 93°
2026-05-04 19:49 55.76329 11.98259 12732 ft 305 kts 92°
2026-05-04 19:50 55.76254 12.02009 12265 ft 302 kts 93°
2026-05-04 19:50 55.76177 12.05720 11915 ft 296 kts 93°
2026-05-04 19:50 55.76100 12.09318 11538 ft 288 kts 93°
2026-05-04 19:50 55.76023 12.12809 11083 ft 285 kts 93°
2026-05-04 19:51 55.75944 12.16321 10615 ft 283 kts 92°
2026-05-04 19:51 55.75867 12.19792 10150 ft 280 kts 92°
2026-05-04 19:51 55.75790 12.23242 9675 ft 278 kts 92°
2026-05-04 19:51 55.75712 12.26660 9174 ft 275 kts 92°
2026-05-04 19:52 55.75636 12.30047 8686 ft 273 kts 92°
2026-05-04 19:52 55.75562 12.33398 8197 ft 270 kts 92°
2026-05-04 19:52 55.75487 12.36676 7713 ft 268 kts 92°
2026-05-04 19:52 55.75409 12.39967 7239 ft 265 kts 92°
2026-05-04 19:53 55.75329 12.43229 6768 ft 263 kts 92°
2026-05-04 19:53 55.75248 12.46460 6297 ft 261 kts 92°
2026-05-04 19:53 55.75168 12.49659 5808 ft 258 kts 92°
2026-05-04 19:53 55.75089 12.52835 5318 ft 256 kts 92°
2026-05-04 19:54 55.75011 12.55990 5006 ft 254 kts 92°
2026-05-04 19:54 55.74946 12.59119 4716 ft 252 kts 88°
2026-05-04 19:54 55.75186 12.62140 4419 ft 249 kts 72°
2026-05-04 19:54 55.75841 12.64954 4120 ft 245 kts 57°
2026-05-04 19:55 55.76845 12.67356 3923 ft 239 kts 43°
2026-05-04 19:55 55.78080 12.69324 3894 ft 239 kts 37°
2026-05-04 19:55 55.79340 12.71244 3700 ft 238 kts 37°
2026-05-04 19:55 55.80595 12.73155 3403 ft 237 kts 37°
2026-05-04 19:56 55.81853 12.75027 3120 ft 234 kts 36°
2026-05-04 19:56 55.83121 12.76823 2915 ft 232 kts 36°
2026-05-04 19:56 55.84386 12.78607 2883 ft 232 kts 35°
2026-05-04 19:56 55.85638 12.80377 2886 ft 233 kts 37°
2026-05-04 19:57 55.86641 12.82639 2881 ft 237 kts 67°
2026-05-04 19:57 55.86974 12.85528 2888 ft 240 kts 83°
2026-05-04 19:57 55.87107 12.88484 2868 ft 236 kts 85°
2026-05-04 19:57 55.87168 12.91307 2862 ft 221 kts 95°
2026-05-04 19:58 55.86622 12.93710 2856 ft 206 kts 134°
2026-05-04 19:58 55.85451 12.94965 2910 ft 195 kts 172°
2026-05-04 19:58 55.84546 12.95140 2908 ft 192 kts 182°
2026-05-04 19:58 55.83231 12.95139 2873 ft 191 kts 185°
2026-05-04 19:59 55.81900 12.95081 2879 ft 191 kts 186°
2026-05-04 19:59 55.80622 12.94623 2879 ft 186 kts 208°
2026-05-04 19:59 55.79575 12.93346 2887 ft 182 kts 225°
2026-05-04 19:59 55.78626 12.91852 2887 ft 182 kts 225°
2026-05-04 20:00 55.77674 12.90356 2884 ft 182 kts 225°
2026-05-04 20:00 55.76724 12.88865 2885 ft 182 kts 225°
2026-05-04 20:00 55.75464 12.86893 2895 ft 183 kts 225°
2026-05-04 20:00 55.74820 12.85885 2894 ft 182 kts 225°
2026-05-04 20:01 55.73878 12.84413 2886 ft 183 kts 225°
2026-05-04 20:01 55.72921 12.82916 2757 ft 183 kts 225°
2026-05-04 20:01 55.71966 12.81427 2546 ft 182 kts 225°
2026-05-04 20:01 55.71023 12.79955 2305 ft 178 kts 225°
2026-05-04 20:02 55.70103 12.78522 2063 ft 171 kts 225°
2026-05-04 20:02 55.69241 12.77180 1843 ft 164 kts 225°
2026-05-04 20:02 55.68391 12.75856 1622 ft 161 kts 226°
2026-05-04 20:02 55.67554 12.74552 1410 ft 158 kts 225°
2026-05-04 20:03 55.66772 12.73337 1197 ft 143 kts 226°
2026-05-04 20:03 55.66042 12.72202 994 ft 137 kts 225°
2026-05-04 20:03 55.65331 12.71096 804 ft 135 kts 224°
2026-05-04 20:03 55.64626 12.69999 614 ft 136 kts 224°
2026-05-04 20:04 55.63917 12.68899 423 ft 136 kts 224°
2026-05-04 20:04 55.63204 12.67792 247 ft 136 kts 223°
2026-05-04 20:04 55.62500 12.66688 72 ft 135 kts 224°
2026-05-04 20:04 55.61853 12.65679 29 ft 103 kts 220°
2026-05-04 20:05 55.61446 12.65052 25 ft 50 kts 221°
2026-05-04 20:05 55.61290 12.64756 25 ft 31 kts 240°
2026-05-04 20:05 55.61217 12.64419 25 ft 21 kts 252°
2026-05-04 20:05 55.61190 12.64230 24 ft 15 kts 266°
2026-05-04 20:06 55.61262 12.64104 24 ft 17 kts
2026-05-04 20:06 55.61376 12.64216 24 ft 20 kts 34°
2026-05-04 20:06 55.61504 12.64363 25 ft 23 kts 32°
2026-05-04 20:06 55.61648 12.64530 24 ft 26 kts 33°
2026-05-04 20:07 55.61793 12.64696 25 ft 20 kts 33°
2026-05-04 20:07 55.61884 12.64800 24 ft 16 kts 33°
2026-05-04 20:07 55.61986 12.64919 24 ft 19 kts 33°
2026-05-04 20:07 55.62088 12.65034 26 ft 12 kts 34°
2026-05-04 20:08 55.62125 12.65079 25 ft 0 kts 34°
2026-05-04 20:09 55.62127 12.65082 25 ft 3 kts 34°
2026-05-04 20:09 55.62167 12.65130 24 ft 10 kts 34°
2026-05-04 20:09 55.62240 12.65173 25 ft 12 kts 334°
2026-05-04 20:10 55.62277 12.65056 24 ft 12 kts 306°
2026-05-04 20:10 55.62335 12.64916 24 ft 15 kts 305°
2026-05-04 20:10 55.62392 12.64764 26 ft 16 kts 302°
2026-05-04 20:10 55.62457 12.64664 24 ft 14 kts 346°
2026-05-04 20:11 55.62563 12.64649 24 ft 17 kts
2026-05-04 20:11 55.62654 12.64669 24 ft 7 kts 12°
2026-05-04 20:11 55.62686 12.64657 25 ft 5 kts 291°
2026-05-04 20:11 55.62699 12.64591 24 ft 5 kts 281°
2026-05-04 20:12 55.62700 12.64578 24 ft 0 kts 281°